Date String (YYYY-MM-DD hh:mm:ss) UTC,Instrument flags,Ambient pressure (hPa),Sample flow (lpm),Bypass flow (lpm),Sample temperature (°C),Ambient temperature (°C),ASC tube jacket temperature (°C),LED temperature (°C),Box temperature (°C),Sample RH (%),Span deviation,Mass concentration (μg/m³),Mass concentration (μg/m³),Mass concentration (μg/m³)
DateTimeUTC,F1_M11,P_M11,Q1_M11,Q2_M11,T1_M11,T2_M11,T3_M11,T4_M11,T5_M11,U1_M11,ZSPAN_M11,X2_M11,X0_M11,X1_M11
2022-07-31 07:00:00,,0829.5,5.00,0.00,29.7,28.7,00.0,38.5,31.7,21.9,0000.0,0004.60,0007.74,0004.37
2022-07-31 07:01:00,,0829.5,5.00,0.00,29.8,28.8,00.0,38.5,31.7,21.9,0000.0,0004.61,0007.73,0004.38
2022-07-31 07:02:00,,0829.5,5.00,0.00,29.8,28.4,00.0,38.5,31.6,21.8,0000.0,0004.62,0007.71,0004.39
2022-07-31 07:03:00,,0829.5,4.99,0.00,29.7,27.5,00.0,38.4,31.4,21.8,0000.0,0004.63,0007.77,0004.40
2022-07-31 07:04:00,,0829.5,5.00,0.00,29.6,27.0,00.0,38.4,31.3,21.8,0000.0,0004.63,0007.67,0004.41
2022-07-31 07:05:00,,0829.5,5.00,0.00,29.5,26.9,00.0,38.4,31.2,21.7,0000.0,0004.66,0007.09,0004.42
2022-07-31 07:06:00,,0829.5,5.01,0.00,29.4,27.0,00.0,38.3,31.1,21.8,0000.0,0004.66,0007.05,0004.43
2022-07-31 07:07:00,,0829.5,5.00,0.00,29.4,27.1,00.0,38.3,31.2,22.5,0000.0,0004.70,0007.25,0004.46
2022-07-31 07:08:00,,0829.5,5.00,0.00,29.4,27.3,00.0,38.3,31.2,23.1,0000.0,0004.72,0007.20,0004.50
2022-07-31 07:09:00,,0829.4,4.99,0.00,29.4,27.5,00.0,38.3,31.2,23.2,0000.0,0004.75,0007.19,0004.53
2022-07-31 07:10:00,,0829.3,5.01,0.00,29.4,27.7,00.0,38.3,31.2,23.2,0000.0,0004.75,0007.03,0004.54
2022-07-31 07:11:00,,0829.2,5.00,0.00,29.4,27.8,00.0,38.3,31.3,23.0,0000.0,0004.77,0007.03,0004.56
2022-07-31 07:12:00,,0829.3,5.01,0.00,29.4,28.0,00.0,38.3,31.3,22.8,0000.0,0004.78,0007.10,0004.57
2022-07-31 07:13:00,,0829.2,5.01,0.00,29.4,28.1,00.0,38.3,31.4,22.7,0000.0,0004.80,0007.22,0004.58
2022-07-31 07:14:00,,0829.2,4.99,0.00,29.5,28.2,00.0,38.3,31.4,22.5,0000.0,0004.82,0007.62,0004.59
2022-07-31 07:15:00,,0829.2,5.02,0.00,29.5,28.3,00.0,38.3,31.4,22.7,0000.0,0004.86,0007.69,0004.62
2022-07-31 07:16:00,,0829.3,4.99,0.00,29.5,28.4,00.0,38.3,31.5,22.6,0000.0,0004.88,0007.69,0004.64
2022-07-31 07:17:00,,0829.3,5.00,0.00,29.5,28.5,00.0,38.3,31.5,22.6,0000.0,0004.92,0007.78,0004.67
2022-07-31 07:18:00,,0829.2,5.00,0.00,29.6,28.5,00.0,38.3,31.5,22.9,0000.0,0004.93,0007.91,0004.68
2022-07-31 07:19:00,,0829.3,4.99,0.00,29.6,28.6,00.0,38.3,31.6,22.8,0000.0,0004.95,0008.00,0004.68
2022-07-31 07:20:00,,0829.3,5.01,0.00,29.6,28.7,00.0,38.4,31.6,22.6,0000.0,0004.96,0008.10,0004.68
2022-07-31 07:21:00,,0829.3,5.00,0.00,29.7,28.7,00.0,38.4,31.7,22.3,0000.0,0004.95,0008.13,0004.68
2022-07-31 07:22:00,,0829.3,4.99,0.00,29.7,28.8,00.0,38.4,31.7,22.3,0000.0,0004.96,0008.35,0004.68
2022-07-31 07:23:00,,0829.3,5.00,0.00,29.7,28.8,00.0,38.4,31.7,22.6,0000.0,0004.96,0008.51,0004.69
2022-07-31 07:24:00,,0829.2,5.01,0.00,29.7,28.3,00.0,38.4,31.6,22.6,0000.0,0005.00,0008.56,0004.71
2022-07-31 07:25:00,,0829.2,5.00,0.00,29.7,27.6,00.0,38.4,31.4,22.6,0000.0,0005.04,0008.22,0004.73
2022-07-31 07:26:00,,0829.3,5.00,0.00,29.6,27.5,00.0,38.4,31.3,22.7,0000.0,0005.06,0008.25,0004.74
2022-07-31 07:27:00,,0829.2,5.00,0.00,29.6,27.5,00.0,38.4,31.3,22.8,0000.0,0005.05,0008.25,0004.73
2022-07-31 07:28:00,,0829.3,5.00,0.00,29.5,27.6,00.0,38.4,31.3,22.6,0000.0,0005.03,0008.17,0004.72
2022-07-31 07:29:00,,0829.2,4.99,0.00,29.5,27.7,00.0,38.3,31.3,22.6,0000.0,0005.02,0008.09,0004.71
2022-07-31 07:30:00,,0829.3,5.00,0.00,29.5,27.8,00.0,38.3,31.4,22.4,0000.0,0005.03,0008.32,0004.72
2022-07-31 07:31:00,,0829.3,5.00,0.00,29.5,28.0,00.0,38.3,31.4,22.2,0000.0,0005.00,0008.25,0004.69
2022-07-31 07:32:00,,0829.3,5.01,0.00,29.5,28.1,00.0,38.3,31.4,22.0,0000.0,0005.00,0008.58,0004.69
2022-07-31 07:33:00,,0829.3,4.99,0.00,29.6,28.2,00.0,38.3,31.5,22.0,0000.0,0004.99,0009.25,0004.68
2022-07-31 07:34:00,,0829.3,5.00,0.00,29.6,28.3,00.0,38.4,31.5,21.9,0000.0,0004.98,0009.19,0004.67
2022-07-31 07:35:00,,0829.3,4.99,0.00,29.6,28.4,00.0,38.4,31.5,21.8,0000.0,0004.94,0009.14,0004.65
2022-07-31 07:36:00,,0829.2,5.00,0.00,29.6,28.5,00.0,38.4,31.6,21.8,0000.0,0004.91,0009.19,0004.62
2022-07-31 07:37:00,,0829.3,4.99,0.00,29.6,28.6,00.0,38.4,31.6,21.8,0000.0,0004.88,0009.10,0004.61
2022-07-31 07:38:00,,0829.2,5.01,0.00,29.7,28.6,00.0,38.4,31.6,21.6,0000.0,0004.85,0009.37,0004.61
2022-07-31 07:39:00,,0829.3,4.99,0.00,29.7,28.7,00.0,38.4,31.7,21.6,0000.0,0004.84,0009.68,0004.61
2022-07-31 07:40:00,,0829.3,5.00,0.00,29.7,28.7,00.0,38.5,31.7,21.4,0000.0,0004.83,0009.55,0004.60
2022-07-31 07:41:00,,0829.2,5.00,0.00,29.8,28.7,00.0,38.5,31.7,21.4,0000.0,0004.82,0009.28,0004.60
2022-07-31 07:42:00,,0829.2,5.01,0.00,29.7,27.9,00.0,38.4,31.5,21.4,0000.0,0004.80,0009.21,0004.60
2022-07-31 07:43:00,,0829.2,5.01,0.00,29.7,27.4,00.0,38.4,31.4,21.0,0000.0,0004.82,0009.04,0004.61
2022-07-31 07:44:00,,0829.2,5.00,0.00,29.6,27.4,00.0,38.4,31.3,21.0,0000.0,0004.82,0008.05,0004.62
2022-07-31 07:45:00,,0829.1,5.01,0.00,29.6,27.5,00.0,38.4,31.3,21.1,0000.0,0004.81,0007.82,0004.63
2022-07-31 07:46:00,,0829.2,5.00,0.00,29.5,27.6,00.0,38.4,31.3,21.4,0000.0,0004.83,0007.85,0004.64
2022-07-31 07:47:00,,0829.2,5.01,0.00,29.5,27.7,00.0,38.4,31.3,21.5,0000.0,0004.82,0007.73,0004.65
2022-07-31 07:48:00,,0829.2,5.00,0.00,29.5,27.9,00.0,38.4,31.4,21.6,0000.0,0004.83,0007.72,0004.66
2022-07-31 07:49:00,,0829.2,4.99,0.00,29.5,28.0,00.0,38.4,31.4,21.6,0000.0,0004.85,0007.57,0004.67
2022-07-31 07:50:00,,0829.2,5.00,0.00,29.5,28.1,00.0,38.4,31.4,21.7,0000.0,0004.87,0006.94,0004.68
2022-07-31 07:51:00,,0829.1,5.00,0.00,29.6,28.2,00.0,38.4,31.5,21.5,0000.0,0004.89,0007.04,0004.69
2022-07-31 07:52:00,,0829.1,4.99,0.00,29.6,28.3,00.0,38.4,31.5,21.3,0000.0,0004.87,0006.93,0004.69
2022-07-31 07:53:00,,0829.1,5.00,0.00,29.6,28.4,00.0,38.4,31.5,21.1,0000.0,0004.89,0007.05,0004.69
2022-07-31 07:54:00,,0829.1,4.99,0.00,29.6,28.5,00.0,38.4,31.6,21.1,0000.0,0004.90,0007.12,0004.70
2022-07-31 07:55:00,,0829.1,5.01,0.00,29.7,28.6,00.0,38.4,31.6,21.0,0000.0,0004.92,0007.21,0004.71
2022-07-31 07:56:00,,0829.1,5.00,0.00,29.7,28.6,00.0,38.4,31.7,20.9,0000.0,0004.95,0007.36,0004.73
2022-07-31 07:57:00,,0829.1,4.99,0.00,29.7,28.7,00.0,38.5,31.7,21.0,0000.0,0004.95,0007.37,0004.73
2022-07-31 07:58:00,,0829.1,5.01,0.00,29.7,28.8,00.0,38.5,31.7,20.9,0000.0,0005.01,0007.46,0004.75
2022-07-31 07:59:00,,0829.1,5.00,0.00,29.8,28.8,00.0,38.5,31.7,21.0,0000.0,0005.04,0007.51,0004.77
